Tracking 28790 objects as of 19-Apr-2024
HD Live streaming from Space Station
objects crossing your sky now

SL-8 DEB *

Track SL-8 DEB * now!
10-day predictions


NORAD ID: 18504
Int'l Code: 1976-098E
Perigee: 618.7 km
Apogee: 629.3 km
Inclination: 74.0 °
Period: 97.0 minutes
Semi major axis: 6994 km
RCS: 0.0123 m2 (small)
Launch date: September 29, 1976
Source: Commonwealth of Independent States (former USSR) (CIS)
Launch site: PLESETSK MISSILE AND SPACE COMPLEX (PKMTR)

Note: This is SATELLITE DEBRIS
Your satellite tracking list
Your tracking list is empty




NASA's NSSDC Master Catalog

Two Line Element Set (TLE):
1 18504U 76098E   24109.69128269  .00013103  00000-0  15756-2 0  9991
2 18504  74.0366 338.3383 0007555 339.4803  77.4333 14.83959257 77519
Source of the keplerian elements: AFSPC